Temp
0 0 0 0 0 0 0 0 1 1 1 1 2 2 3 3 4 4 4 5 5 5 5 5 5 5 6 6 7 7 8 8 8 8 9 9 10 10 11 12 13 14 14 15 15 15 15 15 15 15 15 15 15 15 15 15 15 15 15 15 16 16 16 16 16 16 16 16 15 15 15 15 15 15 16 16 16 16 16 16 16 16 16 16 16 16
-0 0 0 0 0 0 0 1 1 1 1 1 2 2 3 3 4 4 4 5 5 5 5 5 5 6 6 6 6 7 7 8 8 8 9 9 9 10 11 12 13 14 14 15 15 16 16 15 15 15 15 15 15 15 15 15 15 15 15 15 15 16 16 16 16 16 16 16 15 15 15 15 15 15 15 16 16 16 16 16 16 16 16 16 16 16
-0 -0 0 0 0 1 1 1 1 1 1 2 2 2 3 3 4 4 4 5 5 5 5 5 5 5 6 6 6 6 7 7 8 8 9 9 9 10 11 12 13 14 14 15 15 16 16 15 15 15 15 15 15 14 15 15 15 15 15 15 15 15 15 16 16 16 16 16 16 15 15 14 15 15 15 15 16 16 16 16 16 16 16 16 16 16
-0 -0 -0 0 0 1 1 1 1 1 1 2 2 3 3 3 4 4 4 5 5 5 5 5 5 5 6 6 6 6 7 7 8 8 9 9 10 10 11 12 13 13 14 15 15 16 16 15 15 15 15 15 15 14 14 14 15 15 15 15 15 15 15 16 16 16 16 16 16 15 15 14 14 15 15 15 15 15 15 16 16 16 16 16 16 16
-1 -1 -0 -0 0 1 1 1 1 1 2 2 2 3 3 3 4 4 4 4 5 5 5 5 5 5 6 6 6 6 7 7 8 8 9 10 10 10 11 11 12 13 14 14 15 15 15 15 15 15 15 15 15 15 15 14 15 15 15 15 15 15 15 15 16 16 16 16 16 16 15 15 14 14 15 15 15 15 15 15 16 15 16 16 16 16
-1 -1 -1 -0 0 0 1 1 1 1 1 2 2 2 3 3 3 4 4 4 5 5 5 5 5 6 6 6 7 7 7 7 8 8 9 10 10 10 10 11 12 12 13 14 14 15 15 15 15 15 15 15 15 15 15 15 15 15 15 15 15 15 15 15 16 16 16 16 16 16 15 15 14 14 14 14 15 15 15 15 16 15 15 16 16 16
-2 -1 -1 -1 -0 0 1 1 1 1 1 2 2 2 3 3 3 4 4 4 5 5 5 5 6 6 6 6 7 7 7 7 8 9 9 10 10 10 10 11 11 12 12 13 14 14 15 15 15 15 15 15 15 15 15 15 15 15 15 15 15 15 15 15 16 16 16 16 16 16 16 15 15 14 14 14 14 14 15 15 15 16 15 15 15 16
-2 -2 -1 -1 -0 0 1 1 1 1 1 1 2 2 2 3 3 4 4 4 5 5 5 5 6 6 6 6 7 7 7 8 8 9 9 10 10 11 11 11 11 11 12 12 13 14 14 15 15 15 15 14 15 15 15 15 15 15 15 15 15 15 15 15 16 16 16 16 16 16 16 15 15 15 14 14 14 14 15 15 15 15 15 15 15 15
-2 -2 -1 -1 -1 -0 0 1 1 1 1 1 1 2 2 3 3 3 4 4 5 5 5 5 5 6 6 7 7 7 7 8 8 8 9 10 11 11 11 11 11 11 12 12 12 13 14 14 14 14 14 14 14 14 15 15 15 15 15 15 15 15 15 15 15 16 16 16 16 16 16 16 15 15 15 14 14 14 14 15 15 15 15 15 15 15
-2 -2 -2 -2 -1 -1 -1 -0 -0 -0 -0 0 1 2 2 2 1 2 2 3 4 4 5 5 5 6 6 7 7 7 7 8 8 8 9 10 10 10 11 11 11 11 11 12 12 13 13 14 14 13 13 14 14 14 15 15 15 15 15 15 15 15 15 15 15 16 15 15 15 15 15 15 15 15 15 15 15 15 15 15 15 15 15 15 15 15
-3 -2 -2 -2 -2 -2 -2 -2 -2 -1 -1 -1 -0 0 -0 -0 -0 0 1 2 3 3 4 5 5 6 6 7 7 7 7 8 8 8 8 9 10 11 11 11 11 11 12 12 12 13 13 13 13 13 13 13 14 14 14 14 14 14 14 15 15 15 15 15 15 15 15 15 15 15 15 15 15 15 15 15 15 15 15 15 15 15 15 15 15 15
-3 -3 -2 -2 -2 -2 -2 -2 -2 -2 -1 -1 -1 -1 -1 -1 -1 -0 0 1 2 2 3 4 5 6 6 7 7 7 7 8 8 8 9 9 10 11 11 11 11 11 11 12 12 12 13 13 13 13 13 13 14 14 14 14 14 14 14 14 15 15 15 15 15 15 15 15 15 15 15 15 15 15 15 15 15 15 15 14 14 15 15 15 15 15
-3 -3 -3 -3 -2 -2 -2 -2 -2 -2 -2 -1 -1 -1 -1 -1 -1 -1 -0 1 1 2 2 3 5 6 7 7 7 7 7 8 8 8 9 9 9 10 10 10 11 11 11 11 12 12 13 13 13 13 13 13 14 14 14 14 14 14 14 14 14 15 15 15 15 15 15 15 15 15 15 15 15 14 15 15 15 15 15 14 14 14 15 15 15 15
-3 -3 -3 -3 -3 -3 -3 -3 -2 -2 -2 -2 -2 -2 -2 -2 -2 -1 -1 -0 0 1 2 3 4 6 7 7 7 7 7 7 8 8 9 9 9 9 10 10 10 10 11 11 12 12 13 13 13 13 13 14 14 14 14 14 14 14 14 14 14 14 14 15 15 15 15 14 14 15 15 15 15 14 14 15 15 15 14 14 14 14 15 15 15 15
-4 -4 -3 -3 -3 -3 -3 -3 -3 -3 -3 -3 -2 -2 -2 -2 -2 -2 -1 -1 -0 0 1 3 4 6 7 7 7 7 7 8 8 8 9 9 9 9 9 9 10 10 11 11 12 12 12 12 12 13 13 14 14 14 14 14 14 14 14 14 14 14 14 14 14 14 14 14 14 14 14 15 14 14 14 14 14 14 14 14 14 14 15 15 15 15
-4 -4 -4 -4 -4 -4 -4 -3 -3 -3 -3 -3 -3 -2 -2 -2 -2 -2 -2 -1 -1 0 1 3 5 6 7 7 7 7 7 8 8 8 8 9 9 9 9 9 9 10 10 11 11 12 12 12 12 13 13 14 14 14 14 14 14 14 14 14 14 14 14 14 14 14 14 14 14 14 14 14 14 14 14 14 14 14 14 14 14 14 15 15 15 16
-4 -4 -4 -4 -4 -4 -4 -4 -4 -4 -3 -3 -3 -3 -2 -2 -2 -2 -2 -1 -1 0 1 2 4 5 6 7 7 7 7 8 8 8 8 8 9 9 9 9 9 10 10 11 11 11 11 12 12 13 13 14 14 14 14 14 14 14 14 14 14 14 14 14 14 14 14 14 14 14 14 14 14 14 14 14 14 14 14 14 14 14 15 15 15 16
-5 -5 -5 -4 -4 -4 -4 -4 -4 -4 -4 -4 -3 -3 -3 -3 -3 -3 -2 -2 -1 -0 0 1 3 4 6 7 7 7 7 7 8 8 8 8 9 9 9 9 9 10 10 10 11 11 11 11 12 13 13 14 14 14 14 14 14 14 14 14 14 14 14 14 14 14 14 14 14 14 14 14 14 14 14 14 14 14 14 14 14 14 15 15 15 16
-5 -5 -5 -5 -5 -5 -4 -4 -4 -4 -4 -4 -4 -3 -3 -3 -3 -3 -3 -2 -2 -1 -1 0 1 3 4 5 5 5 5 5 6 7 8 8 8 9 9 9 9 10 10 10 10 11 11 11 12 13 13 13 14 14 14 14 14 14 14 14 14 14 14 14 14 14 14 14 14 14 14 14 14 14 14 14 14 14 13 14 14 14 14 15 15 16
-5 -5 -5 -5 -5 -5 -5 -4 -4 -4 -4 -4 -4 -3 -3 -3 -3 -3 -3 -3 -2 -2 -2 -1 0 1 2 2 3 4 5 5 5 6 7 8 8 9 9 9 9 10 10 10 10 10 10 11 12 13 13 13 14 14 14 14 14 14 14 14 14 14 14 14 14 14 14 14 14 14 14 14 14 14 14 14 14 13 13 14 14 14 14 14 15 15
-6 -6 -6 -6 -5 -5 -5 -4 -4 -4 -4 -4 -4 -3 -3 -3 -3 -3 -3 -3 -3 -3 -2 -1 -1 -0 0 1 2 4 4 4 4 5 7 8 8 9 9 9 9 9 10 10 10 10 10 10 11 12 13 13 14 14 14 14 14 14 14 14 14 14 14 14 14 14 14 14 14 14 14 14 14 14 13 13 13 13 13 14 14 14 14 14 14 15
-6 -6 -6 -6 -6 -5 -5 -5 -5 -5 -5 -4 -4 -3 -3 -3 -4 -4 -4 -4 -3 -3 -3 -2 -2 -2 -1 -0 2 3 4 4 3 4 7 8 9 9 9 9 9 9 9 10 10 10 10 10 11 12 13 13 13 14 14 14 14 14 14 14 14 14 14 14 14 14 14 14 14 14 14 14 14 13 13 13 13 13 13 13 14 14 14 14 14 14
-6 -6 -6 -6 -5 -5 -5 -5 -5 -5 -5 -4 -4 -3 -4 -4 -4 -4 -4 -4 -4 -3 -3 -3 -3 -2 -1 0 2 3 4 5 5 5 6 7 8 8 9 9 9 9 9 10 10 10 10 10 10 10 11 12 13 13 14 14 14 14 14 14 14 14 14 14 14 14 14 14 14 14 13 13 13 13 13 13 13 13 13 13 13 13 14 14 14 14
-6 -6 -6 -6 -5 -5 -5 -5 -5 -5 -4 -4 -4 -3 -4 -4 -5 -5 -4 -4 -4 -4 -3 -3 -2 -2 -1 1 2 3 4 5 5 6 6 7 8 8 8 8 8 9 9 10 10 10 10 10 10 10 10 11 12 13 13 13 14 14 14 14 14 14 14 14 14 14 13 13 13 13 13 13 13 13 13 13 13 13 13 13 13 13 13 14 14 14
-6 -6 -6 -6 -6 -5 -5 -5 -5 -5 -4 -4 -4 -4 -4 -5 -4 -4 -4 -4 -4 -4 -4 -3 -2 -1 -0 1 2 4 5 6 6 6 7 7 7 8 8 8 8 8 9 10 10 10 10 10 10 10 10 10 11 12 13 13 13 13 14 14 14 14 14 14 14 14 13 13 13 13 13 13 13 13 13 13 13 13 13 13 13 13 13 13 14 14
-7 -6 -6 -6 -6 -6 -5 -5 -5 -5 -4 -4 -4 -4 -5 -5 -4 -4 -4 -5 -5 -5 -4 -3 -2 -1 0 2 3 4 5 6 6 7 7 7 7 7 8 8 8 8 9 9 10 10 9 10 10 10 10 10 11 11 12 12 13 13 13 13 14 14 14 14 14 14 13 13 12 12 13 13 13 13 13 13 13 13 13 13 13 13 13 13 13 13
-7 -7 -7 -6 -6 -6 -6 -6 -6 -5 -5 -5 -4 -4 -5 -5 -5 -5 -5 -5 -5 -5 -4 -3 -2 -1 0 2 3 4 4 5 6 6 7 7 7 7 7 7 7 8 8 9 10 10 9 10 10 10 10 10 10 11 11 12 12 12 13 13 13 14 14 14 14 14 13 12 12 12 12 13 13 13 13 13 12 13 13 13 13 13 13 13 12 12
-8 -8 -7 -7 -7 -7 -7 -7 -6 -6 -6 -5 -5 -5 -5 -6 -6 -6 -6 -6 -6 -5 -4 -4 -3 -2 -0 1 1 2 3 4 5 6 6 6 7 7 7 7 7 7 8 9 10 10 10 10 10 10 10 10 10 10 10 11 11 12 12 13 13 14 14 14 14 14 13 12 12 12 12 12 12 12 12 12 12 12 12 12 12 12 12 11 11 10
-8 -8 -8 -8 -8 -8 -7 -7 -7 -7 -6 -6 -6 -6 -6 -6 -6 -6 -6 -6 -6 -5 -5 -4 -3 -3 -2 -2 -1 0 3 4 4 5 6 6 7 7 7 7 7 7 8 9 9 10 10 10 10 10 10 10 10 10 10 10 11 11 12 12 13 13 13 13 13 13 13 12 12 12 12 12 12 12 12 12 12 12 12 12 12 11 11 10 10 9
-9 -8 -8 -8 -8 -8 -8 -8 -7 -7 -7 -6 -6 -6 -6 -6 -6 -6 -6 -6 -6 -6 -5 -5 -4 -4 -3 -3 -1 1 3 3 3 4 5 5 6 7 7 7 7 7 8 8 9 9 9 10 10 10 10 10 10 10 10 11 11 11 12 12 12 12 12 12 12 12 12 12 12 12 12 12 12 12 12 12 12 12 12 12 11 11 10 9 8 8
-9 -9 -9 -9 -8 -8 -8 -8 -8 -7 -7 -7 -7 -6 -6 -6 -6 -6 -6 -6 -6 -6 -6 -5 -5 -4 -4 -3 -1 0 2 2 2 3 3 3 5 6 7 7 7 8 8 8 8 8 9 8 9 10 10 10 10 10 11 11 11 11 12 11 11 12 12 12 12 12 12 12 12 12 11 11 11 11 11 11 11 11 12 12 11 10 9 8 7 7
-9 -9 -9 -9 -9 -9 -8 -8 -8 -8 -7 -7 -7 -7 -7 -7 -6 -6 -6 -6 -6 -6 -6 -6 -5 -5 -5 -4 -3 -2 -0 1 1 2 2 2 3 5 7 7 8 8 8 8 9 9 8 7 7 9 10 10 10 10 11 11 11 11 11 11 11 11 11 11 11 11 11 11 11 11 11 11 11 11 11 11 11 11 11 11 11 10 8 8 7 6
-9 -9 -9 -9 -9 -9 -9 -8 -8 -8 -8 -7 -7 -7 -7 -7 -6 -6 -6 -6 -6 -6 -6 -6 -6 -5 -5 -5 -4 -3 -2 -1 0 1 1 0 1 4 6 7 7 8 8 8 9 9 8 7 7 8 9 9 10 10 10 11 11 11 11 11 11 10 11 11 11 10 10 10 10 10 10 10 10 10 10 10 10 10 11 11 10 9 8 7 6 6
-9 -9 -9 -9 -9 -9 -9 -9 -8 -8 -8 -8 -8 -7 -7 -7 -7 -6 -6 -6 -6 -6 -6 -6 -6 -6 -5 -5 -4 -4 -3 -2 -0 0 0 -0 0 1 4 6 7 7 8 8 8 8 8 7 7 7 7 8 8 9 9 10 10 10 11 10 10 10 10 10 9 9 9 9 8 8 8 8 8 9 9 9 9 9 9 9 9 9 8 7 6 5
-9 -9 -9 -9 -9 -9 -9 -9 -9 -8 -8 -8 -8 -8 -7 -7 -7 -7 -6 -6 -6 -6 -6 -6 -6 -6 -6 -5 -5 -4 -4 -1 0 0 0 -0 -1 0 2 5 6 7 7 8 8 8 8 7 7 7 7 7 7 8 8 9 9 9 10 9 9 9 9 9 8 8 8 7 7 7 7 7 7 7 7 7 7 7 8 7 7 7 7 7 6 6
-9 -9 -9 -9 -9 -9 -9 -9 -9 -9 -8 -8 -8 -8 -8 -7 -7 -7 -6 -6 -6 -5 -5 -5 -5 -5 -5 -5 -5 -5 -4 -1 0 1 0 -0 -1 -1 1 4 6 7 7 7 7 8 7 7 7 7 7 6 6 6 6 7 8 8 8 8 8 8 8 8 7 7 7 7 6 6 6 6 6 6 6 6 6 6 6 6 6 6 6 6 6 5
-10 -10 -10 -10 -9 -9 -9 -9 -9 -9 -9 -8 -8 -8 -8 -7 -7 -7 -6 -6 -5 -5 -5 -5 -4 -4 -4 -4 -4 -4 -3 -1 0 1 1 1 0 -0 0 3 5 7 7 7 7 7 7 7 7 7 7 6 6 5 5 6 7 7 7 7 7 7 7 7 7 6 6 6 6 5 5 5 5 5 5 5 5 5 5 5 5 5 5 5 5 4
-10 -10 -10 -10 -10 -10 -9 -9 -9 -9 -9 -9 -8 -8 -8 -7 -7 -7 -6 -6 -5 -5 -5 -4 -4 -3 -3 -3 -3 -2 -2 -1 0 1 1 1 1 1 1 3 5 7 7 7 7 7 7 7 7 6 6 6 5 5 5 5 5 5 5 6 6 6 6 6 6 6 5 5 5 5 5 5 5 4 4 4 5 5 4 4 4 4 4 4 4 4
-10 -10 -10 -10 -10 -10 -10 -10 -9 -9 -9 -9 -8 -8 -8 -8 -7 -7 -6 -6 -5 -5 -4 -4 -3 -3 -2 -2 -2 -1 -1 -1 0 1 2 2 2 2 2 3 5 7 7 6 6 7 7 7 7 6 5 5 4 4 5 5 4 4 4 4 5 5 5 5 5 5 5 4 4 4 4 4 4 4 4 4 4 4 4 3 3 3 3 3 3 3
-10 -10 -10 -10 -10 -10 -10 -10 -9 -9 -9 -9 -8 -8 -8 -8 -7 -6 -6 -5 -5 -4 -4 -3 -3 -2 -2 -1 -1 -1 -1 -0 1 2 3 3 3 2 3 4 6 7 7 6 6 6 7 7 6 6 5 5 4 4 4 4 4 4 4 4 4 4 4 4 4 4 4 4 4 4 3 3 3 3 3 3 4 3 3 3 3 3 3 3 3 2
-10 -10 -10 -10 -10 -10 -10 -10 -9 -9 -9 -9 -8 -8 -8 -8 -7 -7 -6 -5 -4 -4 -4 -3 -3 -2 -2 -1 -1 -0 0 1 1 2 3 3 3 3 3 4 6 7 6 6 5 5 6 6 6 5 5 5 4 4 4 4 4 4 4 4 3 3 3 3 3 3 3 3 3 3 3 3 3 3 3 3 3 3 3 3 2 2 2 3 2 2
-10 -10 -10 -10 -10 -10 -10 -10 -9 -9 -9 -9 -8 -8 -8 -8 -8 -7 -7 -6 -5 -5 -4 -4 -3 -3 -2 -1 -1 -0 1 1 2 3 3 3 3 3 4 5 6 7 6 5 5 5 5 5 5 5 5 4 4 4 4 3 4 4 4 3 3 3 3 3 3 3 3 3 3 2 2 2 2 2 2 2 2 2 2 2 2 2 2 2 2 2
-11 -11 -11 -11 -10 -10 -10 -10 -9 -9 -9 -9 -8 -8 -8 -8 -8 -7 -7 -7 -6 -6 -5 -5 -4 -4 -3 -2 -1 -0 0 1 2 2 3 3 3 4 4 5 6 6 6 5 4 4 4 4 4 4 4 4 4 3 3 3 3 3 2 3 3 2 2 2 2 2 2 2 2 2 2 2 1 1 1 1 1 1 1 1 1 1 1 1 1 1
-11 -11 -11 -11 -10 -10 -10 -10 -10 -9 -9 -9 -8 -8 -8 -8 -8 -7 -7 -7 -7 -6 -6 -5 -5 -4 -3 -3 -2 -1 -0 0 1 1 2 2 3 4 4 5 5 5 6 5 4 3 3 3 3 3 3 3 3 3 3 2 2 2 2 3 3 3 2 2 2 2 1 1 1 1 1 1 1 0 0 0 0 0 0 1 1 1 1 1 1 1
-11 -11 -11 -11 -10 -10 -10 -10 -10 -9 -9 -9 -9 -8 -8 -8 -8 -7 -7 -7 -7 -6 -6 -6 -5 -4 -4 -3 -3 -2 -1 -1 -0 0 1 1 2 3 4 4 4 4 5 4 3 3 2 2 2 3 3 3 3 3 2 2 2 2 2 2 2 2 1 1 1 1 1 0 0 0 0 0 0 0 -0 -0 -0 -0 -0 0 0 0 0 1 1 1
-11 -11 -11 -11 -11 -10 -10 -10 -10 -9 -9 -9 -9 -8 -8 -8 -8 -7 -7 -7 -7 -7 -6 -6 -5 -5 -5 -4 -4 -3 -2 -1 -1 -1 -0 0 1 2 2 3 3 3 3 3 3 2 2 2 2 2 2 2 2 2 2 2 2 1 1 1 0 0 0 0 0 -0 -0 -0 -1 -1 -0 -0 0 -0 -1 -1 -1 -1 -1 -0 -0 0 0 1 1 1
-11 -11 -11 -11 -11 -10 -10 -10 -10 -10 -9 -9 -9 -8 -8 -8 -8 -7 -7 -7 -7 -7 -6 -6 -6 -6 -5 -5 -5 -4 -3 -3 -2 -1 -1 -1 -0 0 1 2 2 2 2 2 2 1 1 1 2 2 2 2 2 1 1 1 1 0 -0 -0 -0 -0 -0 -1 -1 -1 -1 -1 -1 -1 -1 -0 -0 -1 -1 -1 -1 -1 -1 -1 -1 -0 -0 0 0 1
-11 -11 -11 -11 -11 -11 -10 -10 -10 -10 -9 -9 -9 -9 -8 -8 -8 -8 -7 -7 -7 -7 -7 -6 -6 -6 -6 -6 -5 -5 -4 -4 -3 -2 -1 -1 -1 -1 -0 0 1 1 1 1 1 1 0 0 1 1 1 1 1 1 0 -0 -0 -0 -0 -0 -1 -1 -1 -1 -1 -1 -1 -1 -1 -1 -1 -0 -1 -1 -1 -2 -2 -2 -2 -2 -1 -1 -1 -0 -0 -0
-11 -11 -11 -11 -11 -11 -10 -10 -10 -10 -10 -9 -9 -9 -8 -8 -8 -8 -8 -7 -7 -7 -7 -7 -6 -6 -6 -6 -6 -5 -5 -4 -3 -2 -2 -1 -1 -1 -0 -0 -0 0 0 0 -0 -0 -1 -1 -1 -0 -0 0 0 0 -0 -0 -1 -1 -1 -1 -1 -1 -1 -1 -1 -1 -1 -1 -1 -1 -1 -1 -1 -1 -1 -2 -2 -2 -2 -2 -2 -2 -1 -1 -0 -0
-11 -11 -11 -11 -11 -11 -11 -10 -10 -10 -10 -9 -9 -9 -9 -8 -8 -8 -8 -7 -7 -7 -7 -7 -7 -6 -6 -6 -6 -6 -6 -5 -4 -3 -2 -2 -1 -1 -1 -0 -0 -0 -0 -0 -0 -1 -1 -1 -1 -1 -1 -1 -1 -1 -1 -1 -1 -1 -1 -1 -1 -1 -2 -2 -2 -2 -1 -1 -1 -1 -1 -1 -1 -1 -1 -2 -2 -3 -3 -2 -2 -2 -2 -1 -1 -0
-11 -11 -11 -11 -11 -11 -11 -10 -10 -10 -10 -9 -9 -9 -9 -8 -8 -8 -8 -8 -7 -7 -7 -7 -7 -7 -6 -6 -6 -6 -6 -6 -5 -5 -3 -2 -1 -1 -1 -0 -0 0 0 0 -0 -1 -1 -2 -2 -2 -2 -2 -1 -1 -1 -1 -1 -1 -1 -1 -1 -2 -2 -2 -2 -2 -2 -2 -2 -2 -2 -2 -2 -2 -2 -2 -3 -3 -3 -3 -3 -2 -2 -2 -1 -1
Height
720 718 716 715 714 712 710 709 708 708 707 705 704 704 704 704 704 704 704 704 703 703 703 702 702 701 701 700 700 701 702 704 705 705 706 705 703 701 700 699 700 701 703 704 706 707 708 710 712 714 715 717 719 721 723 725 727 729 730 732 734 736 737 739 741 743 746 748 751 753 755 757 760 762 763 765 768 770 772 774 776 778 780 782 785 787
719 717 716 714 713 711 708 707 707 707 706 704 703 703 703 703 702 702 702 702 702 702 702 702 702 701 700 700 700 701 702 703 704 705 705 704 703 701 699 699 699 701 702 703 705 706 707 709 711 713 715 717 718 720 722 724 726 728 729 731 732 734 736 738 740 742 744 747 749 752 754 756 758 760 762 764 766 769 771 773 775 777 779 781 783 786
719 717 715 713 712 710 708 706 705 705 705 703 702 702 702 702 701 701 701 701 701 701 701 701 701 701 700 700 700 701 702 703 703 703 703 702 701 700 699 699 699 700 701 703 704 705 707 709 711 712 714 716 718 719 721 723 725 726 728 729 731 733 735 737 739 741 743 745 747 750 752 755 757 759 761 762 765 767 769 772 774 776 778 780 782 785
719 717 714 713 711 709 707 706 704 703 703 702 702 701 701 701 700 700 699 699 699 700 700 700 700 699 699 699 700 700 701 702 703 702 702 701 699 698 698 697 698 699 700 702 703 704 706 708 710 712 714 715 717 718 720 722 723 725 727 728 730 731 733 735 738 740 742 744 746 748 751 753 755 757 759 761 763 765 767 769 772 775 777 779 781 783
719 717 715 712 711 708 707 705 704 703 702 701 701 700 700 700 699 698 698 698 698 698 698 698 698 698 698 698 698 699 700 701 701 702 701 700 698 697 697 696 697 698 699 701 702 703 705 707 709 711 713 715 716 718 719 721 722 724 726 727 728 730 732 734 736 739 741 743 745 747 750 752 754 756 758 760 762 764 766 768 771 773 776 778 780 782
718 717 715 713 710 708 706 705 704 703 702 701 700 699 699 698 697 697 696 696 696 696 696 696 696 696 697 697 697 697 698 699 699 700 699 699 698 697 696 696 697 697 698 700 701 702 704 706 708 710 712 714 715 717 718 719 721 723 725 726 727 729 731 733 735 737 740 742 744 746 748 751 753 755 757 758 761 763 765 767 769 772 774 777 779 781
718 716 714 712 710 708 706 704 703 702 702 700 699 698 698 697 696 696 695 694 694 694 694 694 695 695 695 695 696 696 696 697 697 697 697 697 697 697 696 696 697 697 698 699 700 702 703 705 707 709 711 713 714 716 717 718 720 722 723 725 727 728 730 732 734 736 738 741 743 745 747 749 751 753 755 757 760 762 764 766 768 770 772 775 777 780
718 716 714 712 710 707 705 703 702 702 701 701 699 698 697 696 696 694 693 693 692 692 692 693 693 693 693 694 694 695 695 695 695 695 695 695 696 696 696 696 696 697 698 699 700 701 702 704 706 708 710 712 713 715 716 717 718 720 722 724 725 727 728 730 732 735 737 739 741 743 745 747 749 752 754 757 759 761 763 765 767 769 771 774 777 779
718 716 714 712 711 708 706 704 702 702 701 700 699 698 697 697 695 694 693 692 692 691 692 692 692 692 692 692 693 694 694 694 694 694 694 694 694 694 695 695 696 697 698 699 700 701 702 703 705 708 710 711 712 714 715 716 717 718 720 722 724 726 727 729 731 733 735 737 740 742 744 746 748 750 752 755 757 760 761 763 766 768 770 773 776 778
718 716 714 713 711 710 708 706 704 702 701 700 699 699 698 697 696 694 693 692 691 691 691 691 690 690 691 691 692 693 693 694 694 694 693 693 693 693 693 694 695 696 697 698 699 700 702 703 705 707 709 710 712 713 714 715 716 717 719 721 722 724 726 727 729 732 734 736 738 741 743 745 747 749 751 754 756 758 760 762 765 767 769 772 774 777
718 716 715 713 712 710 709 707 705 703 701 700 699 698 698 697 697 696 695 693 692 691 690 690 689 689 689 690 691 692 692 692 693 693 692 692 691 691 692 693 694 695 696 698 699 700 701 703 705 707 708 709 711 712 713 714 715 716 718 719 721 723 725 726 728 730 732 735 737 740 742 744 746 748 750 752 754 757 759 761 764 766 768 770 773 775
719 717 715 713 712 711 709 708 706 704 702 701 699 698 698 698 699 698 697 696 693 692 690 689 688 687 688 688 689 690 691 691 691 692 691 690 689 690 691 692 694 695 696 697 699 700 701 703 705 706 707 708 710 711 712 713 714 715 717 718 720 721 723 725 727 729 731 734 736 739 741 743 745 747 749 751 752 755 757 760 762 765 767 769 771 773
719 717 716 714 713 712 710 708 707 705 704 703 702 702 701 701 700 699 698 697 695 693 691 689 687 687 687 687 688 688 689 690 690 690 690 689 689 690 691 692 693 694 696 697 698 699 701 702 704 705 707 708 709 710 711 712 713 715 716 717 718 720 722 724 726 728 730 733 735 738 740 742 744 746 747 749 751 754 757 759 761 763 765 767 769 772
720 718 716 715 714 713 712 710 709 707 706 705 705 704 704 703 702 700 699 697 695 694 692 690 688 687 687 686 687 687 688 688 689 689 689 689 689 691 692 693 693 694 695 697 697 698 700 702 703 705 706 707 708 709 710 711 712 714 715 716 717 718 720 722 725 727 729 732 734 737 739 741 743 745 747 748 750 753 756 758 760 762 764 766 768 770
721 719 717 716 715 714 713 712 710 709 708 707 706 705 704 703 702 701 700 698 696 694 692 691 689 687 687 686 686 687 687 688 688 689 689 689 690 691 693 694 694 694 695 696 697 698 700 702 703 704 705 706 707 708 709 710 712 712 714 715 716 717 719 721 723 726 728 731 733 736 738 740 742 744 746 747 749 752 755 757 759 761 763 764 767 769
722 720 718 717 715 715 714 713 712 710 709 708 707 706 704 704 703 702 702 700 698 696 694 692 690 688 687 686 686 687 687 688 688 688 688 688 690 691 693 694 695 696 696 697 698 699 701 702 703 704 705 706 707 708 709 710 711 712 713 714 715 717 718 720 722 725 727 730 732 735 737 739 741 743 745 747 749 751 754 756 758 760 762 763 766 768
722 721 720 718 716 715 714 713 712 711 710 709 707 707 706 705 704 703 702 702 700 698 697 695 692 689 687 687 687 688 689 689 689 688 688 689 690 691 693 694 695 696 697 698 699 700 701 702 702 703 704 705 707 707 708 709 710 711 712 713 714 716 717 719 722 724 726 729 731 733 736 738 740 742 743 745 747 750 753 755 757 759 761 762 765 767
723 722 721 719 717 716 714 713 712 712 711 709 708 707 706 705 704 703 703 702 701 700 698 697 695 692 689 687 688 689 689 690 690 689 689 689 690 691 692 693 694 695 697 698 699 700 701 701 702 702 704 705 707 708 708 709 710 710 711 712 714 715 717 718 721 723 725 728 730 732 735 737 738 740 742 743 746 749 752 753 755 757 759 762 764 767
723 722 721 720 718 717 715 714 712 712 711 710 709 707 706 705 704 704 703 702 702 701 700 698 696 694 692 690 689 689 689 690 690 689 689 690 690 691 692 692 693 694 695 697 698 699 700 701 702 702 704 706 707 708 708 709 709 710 711 712 713 714 716 718 720 722 724 727 729 731 733 735 737 739 741 743 745 748 751 752 754 756 758 760 763 766
723 722 722 721 719 717 716 714 713 712 712 711 709 708 707 706 705 704 703 702 702 701 700 699 697 695 693 691 689 689 690 690 690 690 690 690 691 692 692 692 693 693 694 696 697 699 701 701 702 703 704 706 707 707 708 708 709 709 710 711 712 714 716 717 719 721 723 726 728 730 732 734 736 738 740 742 745 747 750 752 753 755 757 759 762 764
723 722 722 721 719 718 716 715 714 713 712 711 710 709 707 707 706 705 704 703 702 701 700 699 697 696 694 692 690 689 691 692 692 692 691 691 691 692 692 693 693 694 695 697 698 700 701 702 702 703 704 706 706 707 707 707 708 709 710 711 712 713 715 717 718 720 722 725 727 729 731 733 735 737 739 741 744 746 748 750 752 754 756 758 761 763
723 722 721 720 719 718 717 715 714 713 713 712 711 709 708 707 707 706 704 703 702 701 700 699 697 696 694 692 690 690 692 693 693 692 692 692 692 692 693 693 694 695 696 698 700 702 702 703 703 703 704 705 706 706 706 707 707 708 709 710 712 713 714 716 717 719 721 724 726 728 730 732 734 736 738 740 742 745 747 749 752 753 756 757 760 763
723 722 721 720 719 718 717 715 714 713 712 712 711 710 709 708 707 707 705 704 702 701 700 698 696 694 693 692 690 690 692 692 693 693 693 692 692 693 694 694 695 696 697 699 701 702 703 703 703 703 704 704 705 705 705 706 707 707 708 710 711 712 714 715 717 718 720 722 725 727 729 732 734 736 737 739 742 744 747 749 751 753 755 757 760 762
722 721 720 719 718 717 716 715 714 713 712 712 711 710 709 708 707 706 705 704 702 701 699 697 696 694 692 691 691 691 691 692 692 693 693 693 693 694 694 695 696 697 698 700 701 702 702 703 703 703 703 703 703 704 704 705 706 707 708 709 710 712 713 715 716 717 719 722 724 727 729 732 734 736 737 739 741 743 746 748 750 753 755 757 759 761
722 721 720 719 717 717 716 714 714 713 712 711 710 709 708 707 706 706 705 703 702 701 699 698 696 694 692 692 691 691 691 692 692 693 693 693 694 694 695 696 697 698 699 700 701 701 702 702 702 702 702 702 702 702 703 704 704 706 707 708 709 711 712 714 715 717 719 722 724 727 730 732 735 736 738 739 741 743 745 747 750 752 755 757 758 760
722 721 719 718 717 716 715 714 713 712 712 711 710 709 707 706 706 705 704 703 702 701 699 698 697 695 693 692 691 691 692 692 692 693 693 694 694 695 696 696 697 698 699 699 699 700 700 700 700 700 700 700 701 701 702 702 703 704 706 707 708 710 712 713 715 716 718 721 724 727 729 732 735 736 737 739 741 742 744 747 749 752 754 756 758 760
721 720 719 717 716 715 714 713 712 712 711 711 710 708 707 706 705 705 704 704 703 702 701 699 698 696 693 692 691 691 692 692 692 693 694 695 695 695 695 696 697 697 698 697 697 698 698 698 699 699 699 699 699 700 700 701 702 703 705 706 708 709 711 713 714 716 718 721 724 727 729 731 734 736 737 739 740 742 744 746 749 751 753 756 758 761
720 719 718 717 716 714 713 712 712 711 710 710 709 708 707 706 705 705 705 705 704 703 702 701 700 697 695 693 692 691 691 691 692 692 693 694 695 695 694 695 696 696 697 696 696 696 696 697 697 697 698 698 698 699 700 701 702 703 704 706 707 709 710 712 714 715 718 721 724 726 728 731 732 735 737 738 740 741 743 745 747 749 752 755 758 762
720 718 717 716 715 714 712 711 711 710 710 709 708 707 707 706 706 706 706 705 705 704 703 702 702 700 698 696 693 692 691 691 691 692 692 693 693 693 692 693 694 695 695 694 694 694 694 695 696 697 697 697 697 698 699 700 702 703 704 705 707 708 710 711 713 715 717 720 723 726 728 730 732 733 736 737 739 740 742 743 745 748 751 754 757 761
719 717 717 715 714 713 712 711 710 709 709 708 708 707 706 706 706 706 706 705 705 705 704 704 703 702 700 698 695 692 690 690 691 691 692 692 692 691 691 692 692 693 694 693 692 692 693 694 695 696 697 697 697 698 698 700 701 702 704 705 707 709 710 711 713 716 718 720 723 726 727 729 730 732 735 737 738 740 741 742 744 747 751 754 758 761
719 717 716 715 714 712 712 711 710 709 708 707 707 706 706 706 705 705 705 705 705 705 705 704 704 703 702 701 698 694 690 690 691 692 692 692 691 690 691 691 691 691 692 691 691 691 692 693 694 695 696 697 697 697 698 699 700 702 703 705 707 709 710 712 714 716 718 721 723 725 727 728 730 732 735 737 738 739 740 742 744 747 751 755 758 762
719 718 717 715 714 713 712 711 709 708 707 707 706 706 705 705 705 705 705 705 705 705 705 704 704 703 703 702 700 697 693 691 691 692 692 692 691 690 690 689 689 689 690 690 690 690 691 693 694 695 696 696 697 697 698 698 699 701 702 704 707 709 711 712 715 717 720 722 724 725 727 728 729 731 735 737 738 739 740 741 743 747 750 755 759 763
720 719 717 716 714 713 712 711 709 708 707 707 706 705 705 705 705 704 704 704 704 704 704 704 703 703 702 702 700 698 695 692 692 693 693 693 692 690 688 687 687 687 688 689 689 689 690 691 692 694 695 696 696 697 697 698 699 700 702 704 707 709 712 713 715 718 721 723 725 727 728 730 731 732 735 737 738 739 740 742 743 746 749 753 758 762
721 719 717 716 714 713 712 711 709 708 707 707 706 705 705 704 704 704 703 703 703 703 703 703 703 702 702 700 699 696 693 692 692 693 693 693 692 690 688 687 687 687 687 688 689 689 689 690 692 693 695 696 696 697 697 698 699 701 702 704 707 709 711 713 715 718 721 723 726 728 730 732 733 735 737 738 740 741 742 743 745 747 749 752 756 760
721 719 718 716 715 713 712 711 709 708 708 707 706 705 705 704 704 703 703 702 702 702 702 702 702 701 701 699 698 695 692 691 692 693 693 693 692 691 688 687 686 686 687 688 688 688 689 690 691 693 695 697 697 698 698 699 700 701 702 704 707 709 711 712 714 717 721 723 726 728 731 733 736 737 739 740 742 743 744 746 747 749 751 753 755 758
722 720 718 717 715 714 712 711 710 709 708 707 706 705 705 704 703 703 702 702 701 701 700 700 700 699 699 698 696 694 691 690 691 692 692 692 692 690 689 687 686 686 687 688 688 688 688 690 692 693 694 697 698 700 700 699 700 701 703 705 708 710 712 713 715 717 720 723 726 729 732 734 736 739 741 742 743 744 747 748 751 753 755 757 758 760
722 721 719 718 716 715 713 712 711 710 709 707 707 706 705 704 703 702 702 701 700 700 699 699 698 698 697 696 694 692 691 690 689 690 690 691 690 690 688 687 686 687 688 689 689 687 687 689 692 694 696 697 699 700 701 700 700 702 704 707 709 711 713 715 717 718 720 722 726 728 732 734 737 739 742 743 744 746 749 751 754 756 758 760 762 764
723 722 720 719 717 716 715 713 712 711 710 709 707 707 705 704 703 702 701 700 700 699 698 698 697 696 695 695 693 692 691 689 688 688 688 689 689 688 687 687 687 687 688 690 689 687 686 688 691 694 697 698 700 700 701 700 701 703 706 708 710 712 715 717 718 719 721 723 726 729 732 734 736 739 742 743 745 747 750 753 756 758 760 762 765 767
724 723 722 721 719 718 716 715 713 712 711 710 709 708 706 705 703 702 701 700 699 699 698 697 696 695 694 693 692 691 690 689 687 687 687 687 687 687 687 687 687 688 689 690 690 688 686 686 689 692 696 699 701 702 701 701 702 703 706 709 712 714 717 718 720 721 722 724 727 730 732 735 737 739 741 743 745 747 750 754 757 759 761 763 766 770
726 724 723 722 721 720 718 717 715 714 712 711 710 708 707 705 704 702 701 700 699 698 698 697 696 694 693 692 692 691 690 689 687 687 687 687 687 686 686 687 687 688 689 691 691 690 688 687 688 691 694 697 700 702 702 703 703 703 705 709 714 718 720 721 722 723 724 725 727 730 733 735 737 739 742 744 746 747 750 754 757 760 761 762 765 770
727 726 724 723 722 721 719 718 717 715 713 712 711 709 707 706 704 702 701 700 699 698 697 697 695 694 693 692 691 691 690 688 687 686 686 686 686 686 686 687 687 687 690 691 691 690 689 688 689 691 694 697 699 701 703 704 705 704 705 708 714 718 721 723 724 725 726 727 728 731 733 736 738 741 743 745 747 749 751 754 757 761 763 763 763 766
728 727 726 724 722 721 720 719 717 716 714 713 712 710 708 707 705 703 702 701 700 699 698 697 695 694 693 692 691 690 688 687 685 685 685 685 686 686 687 687 687 687 689 691 691 691 690 690 690 691 693 695 698 701 704 706 707 707 707 710 713 718 722 726 727 727 728 730 731 733 735 737 739 742 744 746 749 752 754 756 758 762 764 766 767 767
729 728 727 725 724 722 721 719 718 716 715 713 712 711 709 708 707 705 704 702 702 700 699 698 697 695 694 692 691 689 687 686 685 685 686 686 686 686 686 686 686 686 688 690 692 692 692 692 692 692 693 694 697 700 704 707 708 710 710 711 712 717 723 728 730 730 731 732 733 735 736 738 740 742 744 747 750 753 755 758 760 762 765 767 770 772
731 730 728 726 725 723 722 720 718 717 716 714 713 712 710 709 707 706 705 704 703 702 701 699 697 696 694 693 691 689 688 687 687 687 687 687 687 686 685 685 685 686 687 690 692 693 693 694 694 695 695 695 697 700 703 707 709 712 714 714 714 716 721 726 729 731 732 734 735 736 737 738 740 742 744 747 750 753 756 758 761 763 766 768 770 772
732 731 729 727 726 724 722 721 719 718 717 716 714 712 711 710 708 707 707 705 704 703 702 701 699 697 696 694 692 691 690 689 688 688 688 688 687 687 686 685 685 686 687 690 693 694 695 696 697 697 698 698 699 701 704 707 710 713 715 717 718 719 722 725 728 730 732 733 735 737 738 738 739 742 745 749 752 756 758 760 762 765 768 770 772 774
733 732 730 729 727 726 724 723 721 720 718 717 715 713 712 711 710 709 708 707 706 704 703 702 701 699 697 696 694 692 692 691 691 690 690 690 689 687 687 686 686 687 688 691 694 697 697 698 698 699 700 701 702 704 706 707 710 713 716 717 719 721 724 727 730 731 732 733 736 738 739 740 740 742 747 751 755 758 761 763 765 767 770 772 775 777
735 733 732 731 729 727 726 724 723 721 719 718 716 715 713 712 711 710 709 708 707 706 704 703 702 701 699 698 696 695 694 694 693 693 692 692 691 690 688 687 687 688 689 692 695 698 700 701 702 702 702 702 704 707 709 710 711 713 716 718 720 722 725 729 732 734 735 735 737 739 741 741 742 744 747 752 756 760 764 766 768 771 773 775 777 780
737 735 734 732 731 729 727 726 724 722 721 719 717 716 715 713 712 711 710 709 708 707 706 704 703 702 700 699 698 697 697 696 695 695 695 695 694 692 690 689 689 690 691 693 697 700 702 703 704 705 705 704 705 707 710 712 713 715 717 719 720 722 726 730 734 736 737 739 740 741 742 741 742 744 747 752 757 762 766 769 772 773 775 777 779 781
738 737 735 734 732 731 729 727 726 724 722 721 719 717 716 715 714 713 712 711 709 708 707 706 704 703 702 701 699 698 698 697 697 697 697 697 696 695 693 691 691 692 693 696 699 702 703 705 706 707 708 708 707 708 710 713 715 717 718 720 722 723 727 731 734 737 739 740 742 743 744 744 743 743 745 750 757 763 767 771 774 776 778 779 781 782
740 738 737 735 734 732 731 729 727 725 724 722 721 719 717 716 715 714 713 712 711 710 708 707 706 705 703 702 701 701 700 699 698 698 698 698 698 697 695 693 692 693 695 698 702 704 707 708 709 710 711 712 712 712 712 714 716 718 721 722 724 725 727 732 735 738 739 741 743 744 746 747 747 747 746 750 756 762 768 772 776 778 780 782 783 784
742 740 738 737 735 734 732 730 729 727 725 724 722 721 719 718 717 715 714 713 712 711 710 709 707 706 705 704 703 702 702 701 700 700 699 699 699 699 697 695 693 693 696 700 704 707 710 712 713 714 715 716 716 716 716 716 717 719 722 725 726 727 728 732 736 738 740 742 744 745 747 749 750 750 749 751 755 762 768 773 777 780 782 783 784 786
Wind_Speed
20 22 22 23 23 23 23 24 23 24 24 25 24 23 22 20 19 18 16 14 14 14 14 14 14 13 12 10 7 4 5 9 11 12 12 11 9 6 8 12 16 18 19 19 20 21 19 17 17 17 18 20 22 25 27 26 25 24 26 26 27 27 27 27 28 29 29 29 29 29 29 29 28 29 31 34 36 38 38 38 37 36 36 36 35 35
20 21 21 21 22 22 23 24 23 23 24 25 25 24 23 22 20 18 16 15 15 14 14 13 13 12 12 11 9 6 5 8 11 13 12 10 8 5 7 12 16 19 20 21 21 22 21 19 18 18 19 20 21 23 25 27 26 25 25 26 27 27 27 27 28 28 29 28 28 28 28 28 27 28 30 32 35 36 37 37 37 36 35 34 34 33
19 20 20 20 21 21 22 23 23 23 23 24 25 24 23 22 20 18 16 16 16 15 14 13 12 11 11 11 10 9 7 7 10 12 12 10 8 5 5 10 15 18 20 22 23 23 22 20 19 19 20 21 21 22 24 26 27 27 26 26 27 28 28 27 28 28 29 28 28 27 27 27 26 27 28 31 34 35 35 36 37 37 36 35 34 33
18 19 20 20 20 20 21 22 23 23 23 23 24 23 23 21 19 18 18 18 18 17 15 13 12 10 10 10 10 10 8 8 9 10 11 10 8 5 4 8 13 17 19 21 23 24 23 21 20 20 21 21 22 22 23 24 27 28 27 27 27 28 28 28 28 29 29 29 27 26 26 26 26 26 27 29 31 33 34 34 35 37 38 37 36 34
18 18 19 19 19 19 20 21 22 22 22 22 22 22 21 19 18 19 20 19 19 17 16 14 11 10 9 8 9 10 9 8 8 9 9 8 7 5 3 5 9 14 17 20 22 23 22 21 21 21 22 22 22 22 23 24 25 27 28 28 28 28 28 28 29 29 30 29 28 26 25 26 26 25 26 27 28 30 33 34 34 35 37 38 38 36
18 18 18 18 18 19 20 20 20 20 20 21 21 21 21 20 20 20 20 19 18 17 16 13 11 9 8 7 8 9 9 9 7 7 8 7 6 4 3 3 6 10 13 17 19 20 20 20 21 22 22 22 22 22 24 24 26 27 27 28 28 29 29 29 29 30 30 30 28 27 27 27 27 26 26 26 27 28 31 33 34 34 36 37 39 38
17 17 17 17 17 18 19 19 19 19 18 19 19 20 20 20 20 20 20 19 17 16 15 13 10 9 8 7 7 8 9 9 8 6 6 5 4 3 2 1 4 6 10 14 17 18 19 20 21 22 22 21 20 21 23 25 27 28 28 28 29 29 29 29 29 30 31 30 29 28 29 29 29 28 27 27 27 28 29 32 34 35 36 36 38 38
16 17 16 16 16 17 17 17 16 16 16 16 17 17 18 18 17 17 16 15 14 13 12 11 10 9 7 7 6 7 8 9 8 7 5 3 2 2 2 2 3 5 8 12 15 17 19 20 22 22 21 19 18 18 19 22 26 28 30 30 30 29 29 29 30 31 32 31 30 30 30 31 31 30 29 28 28 28 29 31 33 35 35 36 37 37
15 15 15 15 15 16 15 14 13 13 12 12 12 13 13 12 12 12 13 12 11 10 10 10 9 9 7 6 6 6 7 9 9 8 6 4 2 2 1 1 4 5 7 12 15 17 19 20 21 21 19 18 17 16 17 19 22 27 30 32 31 31 30 30 31 32 33 32 31 31 30 31 31 30 29 28 27 27 28 29 31 33 34 35 36 36
14 14 14 14 14 14 13 13 14 16 16 13 10 8 7 9 11 12 13 13 13 12 11 10 10 9 8 6 5 5 6 8 9 9 7 5 3 2 1 0 3 5 7 12 15 17 19 20 21 21 18 18 17 17 17 18 20 24 28 32 33 33 32 31 31 32 33 33 32 31 31 30 30 29 28 27 26 25 26 27 30 32 34 35 35 36
14 14 13 13 12 12 13 13 14 16 18 15 12 11 13 15 15 13 12 13 14 14 14 13 12 11 9 7 6 6 7 8 9 10 8 5 2 1 1 0 2 4 7 11 14 17 18 20 20 20 18 18 18 18 18 18 20 22 25 30 33 34 33 33 32 33 33 33 33 32 31 30 29 28 26 25 24 24 24 26 29 32 34 35 35 35
13 13 12 11 11 11 13 14 14 15 16 15 13 12 14 17 17 14 11 11 13 14 15 15 13 12 10 8 7 6 7 8 9 10 9 5 1 1 0 1 1 3 6 10 13 15 17 19 19 18 18 18 19 19 19 19 20 22 24 27 30 33 34 33 33 33 33 33 33 32 31 30 29 27 26 24 23 22 23 25 28 31 33 34 35 35
12 12 12 10 10 10 12 13 14 14 14 14 12 11 12 15 16 15 12 12 12 14 15 15 14 12 10 9 7 7 6 7 8 9 9 6 3 2 2 3 2 1 4 9 13 15 16 18 19 18 18 19 19 19 20 20 21 21 23 24 27 30 32 33 33 33 33 33 33 32 31 30 28 27 25 23 22 22 22 24 27 30 32 33 34 36
12 12 12 10 9 9 11 12 12 12 12 12 12 12 13 14 14 14 13 12 13 15 16 15 13 12 10 9 7 6 6 6 8 9 9 7 5 4 4 5 4 2 3 9 13 15 17 19 19 19 18 18 18 19 19 20 21 21 22 23 25 27 30 32 33 33 33 33 33 32 31 29 28 27 25 23 22 22 22 23 25 28 31 33 35 37
11 12 11 9 9 9 10 11 11 11 12 12 13 13 13 13 13 13 13 13 14 15 15 14 12 10 9 7 6 6 5 6 7 9 9 7 5 5 4 6 5 3 2 8 13 16 19 20 20 19 18 17 17 18 19 20 21 21 22 22 23 25 28 30 32 32 33 33 33 32 30 29 28 26 25 24 22 22 22 23 24 26 29 32 35 38
10 11 10 9 9 9 10 10 11 11 12 13 13 13 13 13 13 13 12 12 13 14 13 11 9 7 6 5 5 5 4 5 7 8 9 8 7 6 5 6 6 5 2 6 12 17 20 21 20 19 19 18 17 17 18 20 21 21 22 22 23 24 26 28 31 32 33 33 32 31 30 28 27 27 26 24 23 22 22 23 24 25 28 32 35 38
10 10 10 10 10 11 11 11 11 11 12 13 13 13 12 12 13 12 12 12 11 11 10 8 5 3 3 4 5 4 3 4 6 7 7 8 7 6 5 6 7 6 4 6 11 16 19 20 20 20 19 18 17 17 18 19 20 21 21 22 22 24 25 27 30 32 33 32 31 30 29 28 28 27 26 25 24 23 22 22 23 25 27 30 34 37
9 9 10 10 11 12 13 12 12 12 13 13 13 13 13 13 12 12 11 11 10 10 9 9 6 3 2 3 5 5 5 7 6 5 5 6 6 6 6 6 7 6 6 7 11 15 18 20 20 20 20 19 18 18 18 19 20 21 21 21 22 23 25 26 29 31 32 32 31 30 29 28 28 28 27 26 24 23 23 22 23 25 27 29 33 35
9 9 10 10 11 13 13 13 13 13 13 14 14 14 14 13 13 12 11 10 10 10 10 8 7 6 5 5 7 9 10 12 11 7 5 5 7 8 8 8 7 6 7 8 12 15 18 19 20 21 21 20 19 18 18 19 20 21 21 21 20 21 23 25 28 30 32 32 31 30 29 29 28 28 27 27 25 24 24 22 22 24 27 29 32 34
9 9 10 11 12 13 13 13 13 14 14 15 15 14 13 13 13 12 11 11 10 10 10 9 9 8 8 11 13 13 11 13 12 9 6 4 6 8 9 8 7 7 7 8 11 14 17 19 20 21 22 21 20 19 19 19 20 21 21 21 20 20 21 22 25 29 31 32 32 30 29 29 29 28 27 27 26 25 24 23 22 23 26 29 32 34
10 10 11 13 13 12 12 12 13 14 15 15 15 14 13 12 12 12 12 12 12 11 11 9 9 10 12 15 18 17 13 12 12 9 5 3 4 6 7 7 7 7 8 9 11 13 16 18 20 21 22 22 21 20 19 19 20 21 22 22 21 21 21 21 23 27 30 32 32 31 30 29 29 28 27 26 25 25 24 22 22 23 25 28 31 33
11 11 13 14 14 13 13 14 14 14 14 15 14 13 12 12 12 12 13 13 12 12 11 11 13 15 18 20 20 17 14 13 11 8 4 2 2 3 4 5 6 6 8 10 12 14 16 17 19 21 22 22 22 21 20 20 21 21 22 22 22 22 23 22 23 25 28 31 32 31 30 29 28 27 27 26 25 24 23 22 22 22 24 27 30 33
12 13 14 14 14 14 14 14 14 14 13 14 13 12 11 11 11 12 13 13 13 13 14 16 19 21 21 21 20 17 14 12 10 8 5 3 0 1 3 5 5 7 10 12 14 15 16 16 17 19 21 21 21 21 21 21 21 22 22 23 23 23 24 25 25 25 28 30 31 31 30 28 27 26 26 25 25 24 23 22 22 22 23 26 29 33
14 14 14 14 14 14 14 14 13 13 14 14 13 13 12 12 12 12 12 12 13 14 16 18 19 19 19 18 17 16 13 10 8 7 7 3 0 1 3 4 5 7 11 14 15 15 15 16 17 18 19 19 20 20 20 21 21 22 23 23 23 23 23 25 25 25 27 29 30 31 30 29 27 26 25 25 24 24 23 22 22 22 23 25 28 32
14 14 14 14 13 13 13 13 12 12 13 14 14 13 13 13 12 11 10 10 11 13 13 13 12 12 12 12 12 11 10 8 6 6 6 2 0 2 3 4 5 6 10 13 15 15 15 16 17 17 18 18 18 18 19 21 21 22 23 23 23 23 23 24 25 26 28 30 30 30 30 29 28 27 25 24 24 23 23 23 23 23 25 26 29 31
13 13 13 13 13 13 13 12 11 11 12 13 13 14 13 13 11 10 9 10 12 13 12 10 8 8 9 9 8 7 7 5 3 4 4 2 2 4 5 6 6 7 9 12 14 14 14 15 16 17 17 17 16 17 18 20 21 22 23 23 24 24 24 24 24 26 29 31 31 30 30 29 28 26 25 23 23 23 24 24 24 24 27 29 31 33
13 13 13 13 13 13 12 12 11 10 11 11 12 12 12 12 11 10 9 10 12 12 9 7 6 7 8 7 7 8 8 5 2 3 4 4 4 5 6 7 7 8 9 11 14 14 14 14 15 16 16 16 16 16 17 19 20 21 22 23 24 24 24 24 24 26 30 32 32 31 30 29 26 24 23 23 23 24 26 27 28 29 31 34 36 39
13 13 13 13 13 13 12 11 10 10 10 11 11 11 11 11 10 8 8 9 11 10 8 6 5 5 5 6 9 12 13 10 5 1 3 4 5 6 7 8 8 9 9 10 13 15 15 15 15 15 16 16 15 15 16 17 19 20 22 23 23 24 24 25 25 27 30 32 32 31 30 28 26 25 25 26 28 29 31 34 36 38 41 43 45 47
15 14 14 14 14 13 13 12 11 10 10 11 10 10 10 10 10 8 8 10 9 8 7 7 6 6 6 9 12 13 10 8 4 1 2 3 5 7 9 9 9 9 9 8 10 12 12 13 14 15 15 15 14 14 16 16 17 19 20 21 22 23 25 26 27 28 31 33 33 32 30 30 29 30 31 32 34 36 39 41 44 46 48 49 49 49
17 16 16 16 16 15 15 14 13 12 11 11 10 10 10 11 10 10 9 10 9 8 7 7 7 7 8 9 8 6 3 3 4 3 1 1 4 6 8 8 8 9 8 7 5 4 5 9 12 14 14 14 13 14 15 16 17 18 20 20 21 23 25 27 28 28 31 32 32 32 32 33 34 35 36 37 39 42 44 46 48 49 50 50 49 48
18 18 18 18 18 17 17 17 16 15 14 13 12 12 12 12 12 11 10 10 9 8 7 7 7 8 7 5 3 1 1 3 5 6 5 5 4 4 6 6 7 9 10 8 3 2 1 3 7 10 12 12 12 13 15 17 18 19 20 21 22 23 25 26 26 27 29 31 32 34 35 37 38 39 39 41 44 45 46 48 50 51 52 51 49 48
17 17 17 18 18 18 18 18 18 17 16 15 15 14 13 13 12 12 11 11 10 9 8 8 8 8 8 6 4 3 3 6 6 8 9 8 6 4 4 5 7 9 12 11 7 3 2 1 4 8 12 13 13 14 15 17 19 21 22 23 24 25 25 26 27 28 30 32 35 37 39 41 42 43 44 46 47 48 48 49 51 53 53 52 50 48
16 16 17 18 18 18 18 19 19 19 18 18 18 17 15 14 13 12 12 11 11 10 9 9 9 9 9 10 10 10 12 15 13 10 11 9 7 4 4 4 6 8 11 12 10 7 5 5 6 9 13 15 16 17 18 19 21 23 24 26 27 28 29 30 32 34 37 39 41 42 44 46 47 48 49 50 50 50 51 52 54 55 55 54 52 50
16 16 17 18 18 18 19 19 19 19 19 19 19 19 17 16 15 13 12 11 11 11 11 10 11 11 11 11 11 13 17 19 16 12 12 11 8 6 6 5 5 6 7 8 8 8 9 11 11 11 13 15 18 19 21 22 24 26 28 30 31 33 35 36 38 41 43 45 46 46 47 48 49 50 51 51 51 51 52 54 55 57 57 56 55 53
16 16 17 17 18 19 19 20 20 20 19 20 20 20 19 18 17 15 14 12 12 11 11 11 12 13 13 13 12 14 17 19 16 13 13 13 11 9 8 6 4 4 4 6 8 9 10 13 14 14 12 13 15 19 22 24 27 29 31 33 34 36 38 40 43 44 46 46 46 45 45 45 46 46 47 48 49 50 51 53 54 55 56 57 56 55
15 16 17 17 18 18 19 19 20 20 20 20 21 21 20 19 18 16 15 13 12 12 12 12 12 13 15 17 18 19 21 20 17 13 12 12 12 10 7 5 3 2 4 6 9 11 12 13 15 16 15 12 11 14 19 25 29 32 33 34 35 37 39 42 44 46 46 45 44 43 43 43 42 42 43 44 46 48 49 50 50 51 52 53 53 53
15 16 16 17 18 18 18 19 20 20 20 21 21 22 21 20 19 17 15 14 12 12 12 12 12 13 14 16 19 21 22 19 16 13 11 10 10 10 10 6 3 2 5 8 10 13 15 14 14 15 15 13 11 11 16 24 29 32 33 34 35 37 38 41 44 45 45 44 43 43 42 42 42 41 42 43 44 46 46 46 46 46 47 47 47 47
16 16 16 17 18 18 18 19 19 20 21 21 21 21 21 20 19 17 15 14 13 13 13 12 12 11 11 12 14 16 16 16 14 12 10 10 10 10 10 7 4 3 6 9 12 16 19 15 10 8 9 11 14 16 20 24 27 29 30 33 35 36 37 39 42 44 45 45 44 43 43 43 43 43 43 43 44 45 44 43 43 43 44 44 44 43
16 16 17 17 18 18 18 19 19 20 21 21 21 20 20 19 18 16 15 14 13 13 12 12 11 10 9 9 9 10 11 12 12 11 9 10 10 10 9 6 4 5 8 10 12 17 21 19 14 10 9 11 14 17 21 24 27 29 30 32 33 33 34 36 39 42 44 45 44 44 43 44 44 44 44 44 45 45 44 42 42 43 44 44 42 41
16 16 17 17 18 18 18 19 20 20 21 20 19 19 19 19 18 17 16 14 13 12 11 10 9 9 8 7 7 7 7 7 8 8 8 9 10 10 8 7 8 9 10 10 10 12 17 20 22 22 21 18 16 17 19 23 27 30 32 29 26 26 28 32 36 39 42 43 44 44 43 44 44 44 43 43 44 44 44 44 44 44 46 46 45 43
16 17 17 18 18 19 19 19 19 19 19 19 19 19 19 19 19 19 18 16 15 14 13 11 10 9 8 8 7 6 4 2 3 6 8 9 9 9 9 11 13 14 13 10 8 9 14 19 23 25 26 24 23 21 21 22 25 30 31 28 26 25 27 30 33 36 39 41 43 43 43 42 42 42 42 42 42 44 45 46 45 44 45 46 47 47
17 17 18 18 19 19 19 19 19 18 18 18 18 18 19 20 19 19 19 19 18 18 17 15 14 13 12 10 10 10 8 6 3 4 6 8 9 10 12 14 16 17 15 11 8 9 14 19 24 26 27 27 25 22 20 21 23 26 29 29 29 29 28 28 30 33 36 37 39 40 41 40 40 40 40 40 40 42 44 44 44 42 41 42 45 47
18 18 18 19 19 19 19 19 19 18 18 18 18 18 19 20 19 18 18 18 18 18 18 17 16 14 12 12 13 14 14 12 10 9 9 10 12 14 16 17 18 19 18 14 11 11 14 17 21 24 27 29 28 25 22 20 21 23 27 31 33 29 21 22 25 29 31 33 35 37 38 39 39 40 41 40 40 40 41 41 41 41 40 40 40 41
18 18 19 19 19 19 19 19 19 18 18 17 18 18 19 20 20 19 18 17 17 17 18 17 15 13 12 12 14 16 17 16 15 14 14 14 15 17 19 20 20 20 20 18 15 13 13 16 18 21 25 29 29 28 25 23 23 23 26 30 32 31 26 24 26 28 29 31 32 35 38 40 42 43 42 42 41 41 41 40 40 40 40 41 40 41
18 18 19 19 19 19 19 19 19 18 18 17 18 18 19 20 20 19 18 17 17 17 17 17 15 13 12 13 14 15 16 17 17 17 16 16 17 18 20 22 22 22 22 20 18 15 14 15 16 19 23 27 29 29 28 26 25 24 23 25 27 28 28 29 30 30 31 32 34 37 40 44 45 45 43 41 40 40 40 40 40 40 40 41 42 43
19 19 19 19 19 19 19 19 19 18 18 18 18 19 20 20 19 18 18 17 17 16 16 16 14 12 11 12 14 14 15 15 16 16 17 18 19 20 22 23 24 25 24 23 20 17 15 15 17 19 21 24 26 27 28 27 26 24 24 25 27 29 31 30 30 31 33 35 37 39 42 45 46 45 42 40 39 38 38 39 40 40 40 41 42 43
20 20 20 19 19 19 19 19 19 18 18 18 18 19 19 19 19 19 18 18 17 16 16 15 14 13 13 13 14 14 13 13 13 13 14 16 19 22 24 25 26 27 27 26 23 19 17 16 17 19 21 22 22 23 24 26 26 26 25 27 29 30 29 28 28 29 32 35 37 38 41 43 44 42 41 40 39 38 37 37 38 39 40 41 41 41
20 20 20 19 19 19 19 19 19 18 18 18 18 19 19 19 19 18 18 18 17 16 16 15 15 14 14 15 15 15 14 13 12 11 11 12 16 21 26 29 30 30 29 28 26 24 21 19 17 17 18 20 21 23 23 25 26 27 28 29 30 30 29 29 30 31 33 33 34 36 38 41 41 41 41 40 38 37 37 37 37 38 40 41 41 41
20 20 20 19 19 19 18 19 18 18 18 18 19 19 19 19 19 18 17 17 17 16 16 15 15 14 14 15 16 16 15 14 12 10 9 8 12 17 24 29 31 31 31 30 29 27 25 24 22 20 17 18 21 24 25 26 27 28 29 30 31 31 31 31 32 33 32 31 31 32 34 36 40 42 43 40 37 36 36 36 36 37 39 40 41 41
20 20 20 19 19 19 19 18 18 18 18 18 18 19 19 19 19 18 18 17 17 17 16 16 15 15 14 15 16 16 16 15 13 11 8 6 7 12 19 25 29 30 29 28 27 26 25 25 25 24 22 19 19 21 23 26 28 28 28 28 30 32 33 32 32 32 31 30 30 31 31 32 36 40 42 40 38 36 36 36 35 36 37 39 40 40
21 21 21 20 19 19 19 18 18 18 18 18 18 18 18 18 19 19 18 18 17 17 17 17 16 15 15 15 16 16 16 15 15 13 10 6 4 7 13 20 25 27 26 23 20 18 16 16 17 20 23 21 18 18 22 25 28 28 26 26 28 31 33 33 33 32 32 32 32 33 33 32 34 37 40 40 38 34 33 33 33 34 35 36 37 37
Wind_Direction
301 301 301 301 301 300 298 297 297 297 297 298 299 301 303 305 307 310 318 326 332 335 335 333 328 318 305 295 293 313 342 351 354 353 348 339 328 298 243 226 223 223 222 219 214 215 221 222 220 218 216 215 214 213 212 211 209 208 207 207 208 210 211 212 210 206 203 202 203 206 210 214 215 210 202 198 200 202 201 199 197 196 195 197 200 201
301 301 301 301 300 298 296 296 295 295 294 295 296 298 301 302 304 308 316 322 325 326 327 329 327 320 308 297 290 292 315 338 349 352 350 342 330 300 242 224 221 221 221 219 216 216 219 221 222 221 219 216 215 215 214 211 209 208 207 205 205 206 208 211 211 209 205 203 203 205 210 214 215 212 205 199 198 199 199 198 197 197 197 198 199 199
304 303 302 301 298 295 294 294 295 294 294 294 295 298 300 300 301 306 312 315 316 318 319 323 325 322 315 304 295 290 297 323 342 350 351 347 338 312 247 223 219 219 219 218 217 217 219 220 222 221 220 217 216 216 216 213 211 209 207 206 205 205 206 209 211 210 206 203 203 204 208 213 215 214 208 202 199 199 199 198 197 198 200 201 201 199
305 303 302 301 298 294 292 292 294 295 295 295 296 298 300 299 301 304 307 308 309 310 314 319 323 324 321 314 303 295 295 312 336 350 355 352 346 330 269 226 218 216 217 218 218 218 220 221 221 221 219 217 216 215 216 216 213 210 208 206 206 205 206 207 209 209 205 202 201 202 206 211 214 213 210 206 204 203 202 201 199 198 200 202 203 201
305 302 300 300 297 295 293 292 293 294 296 296 297 298 299 299 300 302 303 303 303 305 309 315 320 324 327 325 315 303 296 304 327 349 0 0 355 345 308 238 218 214 215 217 218 219 220 220 219 218 217 216 215 214 215 215 214 212 209 207 207 206 206 206 208 208 205 202 199 200 203 209 212 212 211 210 210 209 206 204 202 201 199 200 201 202
305 302 299 297 295 293 292 291 291 292 293 295 296 297 298 299 299 299 300 300 300 300 304 310 318 325 332 337 330 316 302 300 315 343 3 9 7 357 331 253 220 213 212 213 215 216 216 216 215 215 215 215 214 213 213 214 213 212 209 208 207 207 206 206 207 208 205 202 199 198 200 204 208 210 211 211 213 213 210 206 205 203 202 200 199 199
305 303 301 299 296 294 292 289 286 286 287 291 295 297 298 298 297 297 298 299 298 299 302 309 318 329 337 346 345 330 312 302 306 328 357 12 16 11 356 231 214 213 212 209 209 210 210 210 210 211 212 212 212 212 212 212 212 210 208 207 207 207 206 205 207 208 206 202 200 199 198 199 202 205 208 212 215 215 213 209 207 205 204 203 200 197
305 306 308 308 307 305 302 296 292 289 289 292 295 298 298 299 299 301 304 306 306 304 305 310 320 332 341 350 352 341 322 306 303 311 334 353 11 17 16 191 198 209 213 208 205 203 204 204 205 207 208 209 209 210 210 211 210 209 207 206 207 207 206 206 207 208 205 201 199 199 198 198 198 200 204 210 214 216 215 213 210 208 207 206 203 199
306 309 312 315 318 321 323 324 327 327 320 313 308 305 304 310 318 325 331 333 331 325 320 318 322 331 344 354 355 342 324 310 303 304 312 320 332 347 354 195 191 200 210 208 205 202 202 202 203 205 206 208 209 209 208 207 208 208 207 206 206 206 206 206 207 207 203 199 197 198 198 197 196 197 199 206 212 215 215 215 214 212 210 208 205 201
309 311 313 315 322 331 338 343 348 352 355 352 344 342 352 1 359 353 349 347 346 344 340 334 329 332 343 355 355 340 324 310 303 300 303 306 309 324 341 265 193 196 205 207 205 203 202 202 204 206 208 210 211 210 206 202 203 205 206 206 206 206 206 207 207 205 200 197 196 197 197 196 196 195 196 201 207 212 214 215 215 214 212 209 206 202
316 317 316 317 324 334 342 343 345 351 360 3 6 13 20 19 10 357 344 337 337 340 341 341 339 338 341 350 352 342 329 318 306 300 299 299 289 260 313 308 178 186 200 207 207 205 203 204 206 209 212 214 214 212 206 200 198 201 204 206 206 206 206 207 206 203 198 195 195 196 196 196 196 195 196 198 203 208 213 215 216 214 212 209 204 199
322 322 322 324 329 336 341 343 346 352 360 4 8 10 10 7 2 353 338 329 328 331 333 337 342 346 347 349 348 343 335 326 316 307 302 306 296 171 3 45 136 172 199 210 212 210 208 208 209 212 216 217 216 213 207 200 196 196 200 203 205 205 205 206 205 202 196 194 194 195 196 196 196 196 196 198 201 206 212 216 216 214 211 207 201 196
325 326 327 330 335 341 344 346 351 357 3 8 9 5 358 354 352 347 336 330 328 329 330 332 337 346 355 356 351 344 336 331 321 312 306 319 359 53 19 14 34 120 209 218 219 218 216 214 214 216 218 218 215 211 207 201 195 193 195 199 202 204 203 204 203 200 196 194 194 195 196 196 197 197 198 198 201 207 212 215 215 212 208 203 197 193
330 330 331 334 340 346 348 350 353 357 1 3 2 358 352 349 348 346 340 334 332 333 334 330 332 340 353 356 356 352 341 330 319 312 311 328 3 28 4 354 1 12 226 222 223 223 222 219 217 215 214 212 210 207 205 202 196 192 192 195 199 200 200 201 201 199 195 194 194 194 195 196 196 197 198 199 202 207 212 213 211 207 203 198 193 192
333 334 334 336 340 345 348 350 352 354 354 354 353 351 350 351 352 350 346 338 335 335 336 331 332 339 348 353 1 2 346 326 318 318 322 339 13 32 0 343 346 349 240 220 221 222 223 218 213 209 207 206 205 204 203 202 197 192 190 192 195 197 197 197 198 197 194 193 193 194 195 195 195 196 197 198 201 206 210 211 207 202 196 192 190 191
333 334 334 334 337 341 345 348 350 350 349 349 349 350 351 353 352 351 347 340 335 335 335 332 331 336 346 3 18 21 359 330 324 329 337 348 17 33 1 340 340 340 280 221 216 217 218 213 208 204 203 203 203 204 204 202 198 193 189 190 193 194 194 195 196 195 194 193 193 193 194 194 194 195 196 197 200 204 209 210 206 199 191 187 188 190
332 334 334 334 334 336 340 345 348 348 347 346 347 348 350 351 350 348 345 340 337 336 335 333 328 322 343 13 32 40 20 341 335 339 342 346 356 5 352 336 332 329 301 240 222 218 216 211 206 203 202 204 205 206 206 204 199 193 189 188 191 193 193 193 194 195 193 192 192 192 192 192 192 193 195 196 198 203 209 210 207 199 190 186 188 191
332 333 335 334 332 333 336 341 345 347 347 347 346 345 346 348 348 347 344 342 340 337 333 330 326 320 333 6 12 13 12 358 349 340 331 324 319 320 326 325 323 316 294 252 234 229 224 216 209 206 206 207 208 209 208 206 200 194 189 187 190 192 192 192 194 194 193 192 191 191 191 191 191 191 193 193 196 202 208 210 207 200 192 187 188 191
330 332 335 334 331 330 332 337 342 346 346 345 343 341 342 344 346 346 343 341 337 332 327 323 320 319 321 328 323 330 354 359 355 344 324 307 299 298 305 315 316 307 287 255 240 235 231 222 214 210 209 211 211 211 210 207 202 196 190 186 186 187 190 191 193 194 194 192 190 190 190 189 189 190 191 192 195 201 208 210 207 201 194 189 187 189
326 328 332 332 329 327 327 333 339 343 343 341 339 337 338 341 343 342 339 335 330 325 320 314 311 312 313 307 301 306 333 350 352 344 328 307 295 293 296 308 312 303 287 257 241 237 234 226 218 213 212 213 212 211 209 207 204 198 192 187 185 184 186 188 191 193 194 192 190 189 189 189 189 190 191 191 194 200 207 207 205 202 196 190 186 185
323 323 327 331 328 322 322 328 334 338 338 338 336 334 335 339 340 337 333 329 325 321 317 310 304 302 303 300 297 298 312 329 332 327 320 305 291 291 295 303 306 296 279 255 240 235 233 228 221 216 214 213 212 210 208 207 204 200 194 190 187 185 186 187 189 192 193 192 191 189 189 189 189 191 192 192 195 199 203 204 202 199 195 189 185 183
323 322 328 333 329 321 318 323 328 333 336 338 334 331 335 339 336 331 326 323 320 316 311 304 298 297 297 295 295 297 306 316 312 301 299 279 274 294 305 311 303 281 261 247 236 230 230 228 225 220 216 214 211 208 206 205 203 200 196 192 189 188 189 189 190 190 191 191 190 189 189 189 190 191 192 193 195 198 200 200 198 195 192 187 183 182
330 328 331 335 333 327 324 326 329 333 336 337 332 329 334 335 330 323 318 315 312 308 305 301 300 300 300 299 300 302 306 307 300 284 270 257 237 23 341 331 302 264 243 237 231 227 226 227 227 225 219 215 211 208 205 203 202 200 197 193 191 190 192 194 193 191 191 190 190 190 190 190 190 191 191 192 194 196 197 197 195 194 191 185 182 182
338 335 335 336 335 333 331 330 331 334 336 336 334 333 333 332 328 323 319 316 314 312 310 309 307 304 302 303 306 308 307 303 288 266 248 239 233 16 340 331 296 253 236 230 226 223 222 223 227 228 225 219 213 208 204 202 200 199 196 194 191 191 191 193 194 193 193 193 193 194 195 195 195 194 193 193 194 196 196 196 196 196 193 187 183 182
342 340 338 338 336 334 333 332 331 331 334 337 338 339 337 335 334 333 334 333 330 327 323 318 311 304 302 304 306 307 310 302 280 249 230 215 309 287 286 303 298 269 239 226 221 219 219 220 223 227 229 224 217 209 204 200 198 197 196 193 192 191 191 192 193 194 196 197 196 195 195 197 198 198 196 196 197 198 198 198 197 197 196 191 186 184
343 341 340 339 337 336 336 333 331 331 335 339 342 342 341 342 345 349 350 349 346 343 338 329 318 309 308 306 309 314 317 306 263 223 215 222 260 266 265 279 295 287 257 231 220 217 219 219 220 223 228 228 220 211 204 199 197 196 194 193 191 190 190 190 191 193 197 198 197 195 194 196 197 198 197 196 196 196 196 195 193 190 189 186 182 178
346 345 344 343 343 342 341 339 337 336 339 344 345 344 344 350 359 5 4 357 353 348 340 331 321 315 314 313 317 322 320 312 269 213 219 232 240 247 256 269 286 288 267 236 219 214 217 220 220 221 225 228 223 213 204 198 195 194 193 191 190 189 188 189 189 192 197 198 196 194 193 193 194 193 190 187 183 182 181 178 173 169 167 163 159 157
351 350 350 351 350 349 347 346 346 345 347 350 351 350 352 3 8 7 359 352 349 346 339 331 324 320 320 321 318 314 311 312 313 239 206 222 231 238 248 260 277 283 268 234 212 206 210 213 216 220 224 227 223 212 201 195 193 192 191 189 188 187 186 186 188 191 195 196 194 191 189 187 184 180 175 171 168 166 165 160 156 152 148 143 140 138
357 356 357 359 359 358 357 359 360 358 357 357 359 3 8 15 12 1 350 348 346 342 335 328 323 320 317 314 311 309 308 315 329 8 180 217 232 238 246 256 270 275 259 221 197 193 200 201 203 209 218 224 220 207 196 190 190 190 189 188 188 189 190 189 187 188 191 192 190 186 181 176 171 167 165 163 161 158 156 153 149 145 140 136 133 132
357 358 0 3 4 5 6 8 8 7 6 6 8 13 19 21 14 2 353 350 345 337 330 323 320 319 318 315 308 303 313 0 20 40 82 296 256 243 244 253 263 263 245 209 179 167 180 182 184 192 205 215 214 204 193 189 188 188 188 188 189 192 193 191 187 184 184 183 181 176 171 166 162 161 161 160 159 156 154 152 147 142 137 133 131 130
353 354 356 359 2 5 7 8 8 9 11 12 13 15 17 16 11 4 357 350 342 332 323 316 313 312 313 316 307 294 15 19 21 24 22 350 309 254 241 246 254 254 243 216 187 84 121 150 161 172 187 195 198 196 192 189 187 185 184 183 183 185 186 185 181 178 175 173 170 166 163 161 159 159 160 159 158 157 155 153 148 142 137 133 130 128
351 352 353 355 358 1 3 4 6 8 10 11 12 11 11 9 6 1 354 348 340 329 317 309 304 301 296 285 280 284 288 291 326 356 360 346 325 282 246 240 245 249 246 231 211 168 144 122 126 141 158 163 166 171 176 179 179 178 175 173 170 170 171 170 166 163 161 161 161 159 158 157 157 158 158 158 157 157 157 154 150 144 139 135 131 128
352 353 353 355 357 359 1 3 4 6 7 7 6 6 5 4 2 358 352 346 339 329 316 305 298 293 289 280 273 271 274 277 289 317 336 334 325 304 278 253 245 247 250 240 221 189 148 131 118 120 129 134 138 144 152 160 165 166 164 160 155 152 153 152 150 148 147 147 148 150 151 151 152 152 153 153 154 155 155 154 151 147 143 139 134 131
353 354 354 355 357 358 360 2 3 4 4 3 2 1 0 359 357 355 350 345 339 331 319 305 293 287 285 282 277 274 275 277 282 295 314 319 318 312 308 295 272 258 254 237 205 169 138 127 123 119 115 115 119 125 132 140 147 151 152 148 143 140 140 140 139 138 138 138 138 139 141 142 143 144 145 146 147 148 149 149 149 147 145 143 139 135
355 356 356 356 357 357 358 360 1 1 0 359 358 357 356 355 353 351 348 344 339 332 323 311 298 286 278 275 274 275 278 280 285 294 303 307 307 307 310 311 299 275 255 214 180 154 135 128 128 126 119 108 105 111 119 126 132 136 139 138 136 135 135 136 135 134 133 133 132 132 133 134 135 136 137 139 140 141 143 143 144 144 145 144 142 140
357 357 358 358 357 356 356 356 357 357 356 355 355 354 353 352 351 349 347 345 341 335 326 317 307 295 284 276 271 272 278 286 294 300 300 298 296 295 296 308 317 285 240 210 180 155 136 129 126 125 121 113 102 101 109 117 123 126 128 130 131 132 133 134 134 133 132 131 130 130 130 131 131 131 132 135 136 138 139 139 139 140 141 141 142 141
0 359 358 358 357 356 354 354 354 353 352 351 351 351 350 349 348 348 347 347 345 340 332 324 314 302 291 283 278 278 282 292 298 299 294 287 280 276 277 286 300 259 223 210 181 154 137 128 124 123 121 119 117 113 109 113 116 119 120 124 127 128 130 132 133 134 132 131 130 130 130 130 129 129 130 131 133 134 135 135 136 136 137 137 138 138
1 360 358 358 357 355 352 351 351 350 348 347 346 346 346 346 347 348 349 350 350 346 340 332 322 311 300 290 286 287 292 297 298 296 288 274 262 257 262 272 269 221 214 203 178 154 140 133 127 123 120 119 121 122 121 117 114 114 116 121 124 126 128 131 133 133 132 131 131 130 130 130 129 129 129 130 131 131 131 131 133 134 134 134 134 135
1 359 358 357 355 353 351 348 347 346 346 345 344 344 345 346 350 353 355 356 355 352 346 339 331 325 319 309 303 300 301 299 297 291 276 257 243 236 237 243 222 200 200 192 174 156 146 141 137 133 128 122 121 121 122 121 119 117 116 117 119 122 126 129 131 132 132 131 130 129 129 130 130 130 130 131 131 130 129 130 131 133 133 132 130 131
359 358 356 355 353 351 349 346 345 344 344 345 345 347 349 351 355 360 3 3 2 359 355 349 345 343 345 343 338 330 319 307 292 274 255 236 223 212 202 197 184 180 185 183 174 161 150 142 138 135 134 132 129 126 124 124 124 123 121 117 115 117 122 127 129 130 131 131 131 130 129 130 130 130 130 131 132 131 131 132 133 134 134 133 130 128
358 356 354 352 351 350 349 347 346 346 346 347 348 351 354 357 359 1 5 7 8 8 5 3 3 7 12 13 17 22 25 6 262 240 228 213 196 182 174 175 175 175 176 176 170 155 145 139 137 135 135 134 131 128 125 125 127 127 125 123 121 121 122 125 128 129 130 131 131 131 130 129 129 129 129 130 130 132 134 134 134 134 134 136 135 134
357 355 352 350 349 348 348 349 350 351 352 352 354 356 359 1 1 1 1 3 4 5 5 4 2 2 6 19 36 51 64 80 126 177 184 176 167 162 163 166 170 173 172 165 148 132 132 135 137 137 136 134 131 127 124 123 125 126 125 124 122 119 118 121 125 128 128 128 129 130 129 128 128 127 127 127 127 130 132 133 134 134 134 135 136 138
355 353 351 350 349 349 350 351 352 354 355 357 357 359 2 5 5 4 3 2 0 359 359 358 356 354 356 10 31 49 62 77 95 112 124 134 141 147 153 157 162 165 164 151 131 118 125 130 133 136 137 135 132 128 124 121 119 121 123 126 125 122 118 120 124 126 126 127 128 128 128 128 127 126 126 126 127 128 130 131 133 134 134 134 135 136
354 352 352 352 353 354 355 355 355 355 356 357 358 1 4 8 9 8 6 4 2 360 359 358 358 359 2 12 26 39 51 66 80 92 101 112 125 136 142 145 149 153 153 140 125 115 118 122 127 132 135 135 132 129 126 123 121 121 124 127 129 129 130 130 129 127 125 126 127 128 129 128 127 126 125 124 126 128 130 131 132 133 134 136 136 137
356 355 355 356 356 356 356 355 355 355 356 359 0 2 5 9 11 11 9 6 4 3 2 3 4 6 9 15 23 33 42 51 63 76 86 97 111 123 130 133 135 137 138 132 124 118 114 116 122 128 131 132 131 130 128 127 125 123 123 124 124 124 125 129 130 129 128 127 128 128 129 129 128 125 122 121 122 124 127 129 131 132 134 136 137 138
359 359 358 358 358 358 357 356 356 357 359 1 3 4 7 9 11 11 11 9 7 5 6 9 13 14 13 14 19 26 32 39 47 58 71 84 97 110 119 123 125 126 125 123 120 115 112 117 123 127 126 126 125 127 129 128 125 122 121 120 119 119 121 124 127 129 129 128 128 128 129 129 127 124 120 118 118 120 123 126 128 130 133 135 136 138
1 0 359 359 358 358 357 357 358 359 1 3 4 6 7 9 10 11 12 13 11 9 9 13 17 20 19 18 19 21 22 23 30 43 60 75 88 98 107 112 117 119 119 118 114 107 102 108 119 126 127 125 123 123 124 125 125 123 123 122 120 119 119 120 123 126 127 127 128 129 129 129 126 122 120 118 116 116 118 121 125 128 131 132 134 134
1 1 0 359 358 357 357 358 359 0 1 2 5 7 9 10 11 12 12 14 15 14 13 14 17 19 20 20 20 20 19 19 24 36 53 72 87 97 103 107 109 111 112 112 109 103 96 96 101 112 121 126 127 126 124 123 124 125 126 125 123 121 119 121 123 126 126 126 128 129 130 129 127 124 121 118 116 114 115 117 121 125 128 130 130 130
3 3 2 1 1 360 358 358 360 1 2 3 4 6 9 12 14 15 15 16 17 18 17 16 17 19 19 18 18 19 19 20 24 32 47 70 91 101 106 108 108 106 104 103 101 97 91 87 85 88 98 113 122 126 126 125 125 126 126 126 124 122 121 122 124 126 126 127 128 129 129 129 129 128 125 120 116 115 115 117 120 123 126 128 129 129
5 4 4 3 3 2 0 0 1 3 4 4 4 5 7 10 13 16 17 19 21 21 21 20 20 20 19 17 16 16 16 15 17 23 33 58 95 111 113 114 113 111 105 101 96 91 85 78 74 75 79 92 108 119 124 126 126 125 124 124 124 124 123 124 125 127 127 127 127 127 126 126 127 127 125 121 118 116 116 116 119 122 126 129 130 131
6 6 6 5 5 4 3 3 4 5 6 6 6 6 7 10 12 15 18 21 22 23 23 24 24 24 22 18 16 15 14 12 10 9 14 27 83 124 126 124 121 119 115 110 103 96 88 77 69 65 64 72 87 107 123 127 127 124 122 123 125 126 125 125 125 126 125 124 124 124 123 123 124 124 123 122 119 117 115 115 117 121 125 128 129 129